{"data":{"norad_id":87884,"intl_designator":"","name":"UNKNOWN","alt_names":[],"object_type":"UNKNOWN","status":"UNKNOWN","operator":null,"country":null,"launch_date":null,"launch_site_code":null,"launch_vehicle":null,"mission":null,"orbit_class":"UNKNOWN","rcs_meters":null,"size_class":null,"mass_kg":null,"dimensions":null,"purposes":[],"wikipedia_slug":null,"has_3d_model":false,"image_url":null,"decayed_at":null,"tle_current":{"epoch":"2026-09-17T05:39:15.160896Z","epoch_age_seconds":296529,"freshness":"STALE","line1":"1 87884U          26260.23559214 -.00000002  00000+0  22203-4 0  9997","line2":"2 87884  98.7429 359.4315 0153672   5.0296 355.2374 14.06144142657501","mean_motion":14.06144142,"eccentricity":0.0153672,"inclination_deg":98.7429,"raan_deg":359.4315,"arg_perigee_deg":5.0296,"mean_anomaly_deg":355.2374,"bstar":2.2203e-5,"rev_number":65750,"period_min":102.40770892462,"perigee_km":761.17308957581,"apogee_km":984.02003517528,"semimajor_km":7250.7335623755,"source":"CELESTRAK","updated_at":"2026-09-20T09:00:32.480657Z"}}}